SCP
-0 -0 0 -0 -0 -0 0 0 -0 -0 -0 -0 -0 -0 -0 -0 -0 -0 0 0 0 0 0 0 0 0 0 0 0 0 0 0 0 0 0 0 0 0 0 0 0 0 0 0 0 0 0 0 0 0 0 0 0 0
-0 -0 0 0 -0 -0 0 -0 -0 -0 -0 -0 -0 -0 -0 -0 -0 -0 0 0 0 0 0 0 0 0 0 0 0 0 0 0 0 0 0 0 0 0 0 0 0 0 0 0 0 0 0 0 0 0 0 0 0 0
-0 0 0 0 -0 -0 -0 0 -0 -0 -0 -0 -0 -0 -0 -0 -0 0 0 0 0 0 0 0 0 0 0 0 0 0 0 0 0 0 0 0 0 0 0 0 0 0 0 0 0 0 0 0 0 0 0 0 0 0
0 0 0 0 -0 -0 -0 0 -0 -0 -0 -0 -0 -0 -0 -0 0 0 0 0 0 0 0 0 0 0 0 0 0 0 0 0 0 0 0 0 0 0 0 0 0 0 0 0 0 0 0 0 0 0 0 0 0 0
0 0 0 -0 -0 -0 0 0 -0 -0 -0 -0 -0 -0 -0 -0 -0 0 0 0 0 0 0 0 0 0 -0 0 0 0 0 0 0 0 0 0 0 0 0 0 0 0 0 0 0 0 0 0 0 0 0 0 0 0
0 -0 -0 0 -0 -0 0 -0 -0 -0 -0 -0 -0 -0 -0 -0 0 0 0 0 0 0 0 0 0 0 0 0 0 0 0 0 0 0 0 0 0 0 0 0 0 0 0 0 0 0 0 0 0 0 0 0 0 0
0 0 0 0 -0 -0 0 -0 -0 -0 -0 -0 -0 -0 -0 -0 0 0 0 0 -0 -0 0 0 0 0 0 0 0 0 0 0 0 0 0 0 0 0 0 0 0 0 0 0 0 0 0 0 0 0 0 0 0 0
0 0 0 0 -0 -0 -0 -0 -0 -0 -0 -0 -0 -0 0 -0 0 0 0 0 0 0 0 0 0 0 0 0 0 0 0 0 0 0 0 0 0 0 0 0 0 0 0 0 0 0 0 0 0 0 0 0 0 0
0 0 0 0 -0 -0 -0 -0 -0 -0 -0 -0 -0 -0 0 0 0 0 0 0 0 0 0 0 0 0 0 0 0 0 0 0 0 0 0 0 0 0 0 0 0 0 0 0 0 0 0 0 0 0 0 0 0 0
0 0 0 0 -0 -0 -0 -0 -0 -0 -0 -0 0 0 0 0 0 0 0 0 0 0 0 0 0 0 0 0 0 0 0 0 0 0 0 0 0 0 1 0 0 0 0 0 0 0 0 0 0 0 0 0 0 0
0 0 0 0 -0 -0 -0 -0 -0 -0 0 0 0 0 -0 -0 0 0 0 0 0 0 0 0 0 0 0 0 0 0 0 0 0 0 0 0 0 0 0 0 0 0 0 0 0 0 0 0 0 0 0 0 0 0
0 0 0 -0 -0 0 0 0 0 0 0 0 0 -0 0 0 0 0 0 0 0 0 0 0 0 0 0 0 0 0 0 0 0 0 0 0 0 0 0 0 0 0 0 0 0 0 0 0 0 0 0 0 0 0
0 0 0 -0 0 0 0 0 0 0 0 0 0 0 0 0 0 0 0 0 0 0 0 0 0 0 0 0 0 0 -0 -0 -0 0 0 0 0 0 0 0 0 0 0 0 0 0 0 0 0 0 0 0 0 0
0 0 0 -0 0 -0 0 0 0 0 0 0 0 0 0 0 0 0 0 0 0 0 0 0 0 0 0 0 0 0 0 0 -0 0 0 0 0 0 0 0 -0 0 0 0 0 0 0 0 0 0 0 0 0 0
0 0 0 0 0 0 0 -0 0 0 0 0 0 0 0 0 0 0 0 0 0 0 0 0 0 0 0 0 0 0 0 0 0 0 -0 -0 -0 -0 -0 -0 0 0 0 0 0 0 0 0 0 0 0 0 0 0
0 0 0 0 0 0 0 0 0 0 0 0 0 0 0 0 0 0 0 0 0 0 0 0 0 0 0 0 0 0 0 0 0 0 0 0 0 -0 0 0 0 0 0 0 0 0 0 0 0 0 0 0 0 0
0 0 0 -0 0 -0 0 0 0 0 0 0 0 -0 0 0 0 0 0 0 0 0 0 0 0 0 0 0 0 0 0 0 0 -0 0 0 0 0 0 0 0 0 0 0 0 0 0 0 0 0 0 0 0 0
0 0 0 0 0 0 0 0 0 0 0 0 0 0 0 0 0 0 0 0 0 0 0 0 0 0 0 0 0 0 0 0 -0 0 0 0 0 0 0 -0 0 0 0 0 0 0 0 0 0 0 0 0 0 0
0 0 0 0 0 0 0 0 0 0 0 0 0 0 0 0 0 0 0 0 0 0 0 0 0 0 0 0 0 0 0 0 0 0 0 0 0 0 0 0 0 0 0 0 0 0 0 0 0 0 0 0 0 0
0 0 0 -0 0 0 0 0 0 0 0 0 0 0 0 0 -0 -0 0 0 0 0 0 0 0 0 0 0 0 0 0 0 0 0 0 0 0 0 0 0 0 0 0 0 0 0 0 0 0 0 -0 0 0 -0
0 0 0 0 0 0 0 0 0 0 0 0 0 0 0 0 0 0 0 0 0 0 0 0 0 0 0 0 0 0 0 0 0 0 0 0 0 0 0 0 0 0 0 0 0 0 0 -0 -0 -0 -0 -0 -0 -0
0 0 0 0 0 0 0 0 0 0 0 0 0 0 0 0 0 0 0 0 0 -0 0 0 -0 0 0 0 0 0 0 0 0 0 0 0 0 0 0 0 0 0 0 0 0 0 0 0 0 0 0 -0 -0 0
0 0 0 0 0 0 0 0 0 0 0 0 0 0 0 0 0 0 0 0 0 0 0 0 0 0 0 0 0 0 0 0 0 0 0 0 0 0 0 0 0 0 -0 0 0 0 0 0 0 0 -0 0 -0 0
0 0 0 0 0 0 0 0 0 0 0 0 0 0 0 0 0 0 0 0 0 0 0 0 0 0 0 0 0 0 0 0 0 0 0 0 0 0 0 -0 -0 -0 -0 0 0 -0 -0 0 -0 -0 0 0 0 0
0 0 0 0 0 0 0 0 0 0 0 0 0 0 0 0 0 0 0 0 0 0 -0 0 -0 0 0 -0 -0 0 0 0 0 0 -0 -0 0 0 0 0 0 0 0 -0 -0 -0 -0 -0 -0 0 0 0 0 0
0 0 0 0 0 0 0 0 0 0 0 0 0 0 0 0 0 0 0 0 0 0 0 -0 0 0 -0 0 0 0 -0 -0 -0 0 0 0 0 0 0 0 0 0 -0 -0 -0 -0 0 0 0 0 0 0 0 0
0 0 0 -0 0 0 0 0 0 0 0 0 0 0 0 0 0 0 0 0 0 -0 0 0 0 -0 -0 -0 -0 0 -0 0 0 0 0 0 0 0 0 0 0 -0 -0 0 0 0 -0 -0 -0 -0 0 0 0 0
0 0 -0 0 0 0 0 0 0 0 0 0 0 0 0 0 0 0 0 0 -0 0 0 0 0 -0 0 -0 -0 -0 0 0 0 0 -0 -0 -0 -0 -0 -0 0 0 -0 -0 -0 -0 -0 -0 -0 -0 0 0 0 0
-0 -0 -0 -0 0 0 0 0 0 0 0 0 0 0 -0 -0 0 0 0 -0 -0 0 0 -0 -0 -0 0 0 0 0 0 0 0 -0 -0 0 -0 -0 -0 0 0 0 0 0 -0 0 -0 -0 0 0 0 0 0 0
-0 -0 -0 0 -0 -0 0 0 0 0 0 0 0 0 0 0 -0 0 -0 0 -0 0 -0 -0 -0 0 0 0 0 0 0 0 -0 -0 -0 -0 -0 0 0 0 0 0 0 0 -0 -0 -0 0 0 0 0 0 0 0
0 0 -0 -0 0 0 -0 0 0 0 0 0 0 0 0 0 0 -0 0 0 -0 0 0 0 0 0 -0 0 0 0 -0 -0 -0 -0 -0 0 0 0 0 -0 0 0 0 0 0 0 0 0 0 0 0 0 0 0
0 0 -0 0 0 -0 -0 0 0 0 0 0 0 0 0 0 0 0 0 0 0 0 0 -0 0 -0 -0 -0 -0 -0 -0 -0 -0 -0 -0 0 0 0 0 0 0 0 0 -0 0 0 0 0 0 0 0 0 0 0
0 0 0 0 0 0 0 0 0 0 0 0 0 0 0 0 0 0 0 -0 -0 -0 0 -0 0 0 0 -0 -0 -0 -0 -0 -0 -0 0 0 0 0 0 0 0 0 0 -0 -0 0 0 0 0 0 0 0 0 0
Wind_Speed_500mb
69 66 65 62 62 65 66 63 56 53 53 51 50 50 50 45 38 27 12 17 23 12 39 16 18 28 36 34 8 28 17 10 7 3 4 8 5 10 6 5 11 9 9 3 3 3 6 30 15 10 11 36 33 30
65 62 63 60 57 61 63 61 58 55 53 51 49 48 50 45 37 30 18 15 18 17 27 28 25 19 19 13 21 25 19 23 13 7 9 9 7 7 6 2 11 8 8 9 7 8 18 39 34 35 35 34 25 17
58 59 61 58 55 58 61 59 58 54 51 50 48 47 45 43 37 29 17 22 37 15 37 19 13 2 10 14 11 15 13 25 13 21 8 6 5 6 6 7 5 8 8 10 13 9 22 43 38 32 24 19 13 18
57 54 56 55 52 56 59 56 55 53 49 49 49 44 40 37 32 23 15 20 26 16 10 9 14 9 12 9 6 10 17 13 16 18 10 4 4 11 3 5 7 3 11 12 18 23 37 28 22 19 18 15 18 21
53 54 54 52 50 53 57 56 55 51 50 48 46 41 34 27 20 17 19 22 16 14 10 24 21 5 11 5 8 10 14 20 27 7 4 6 7 5 7 7 10 10 3 7 6 21 31 18 24 14 13 15 16 17
51 54 52 48 49 51 55 55 56 50 48 47 43 34 28 16 15 11 6 5 14 29 8 7 11 5 15 14 14 16 12 16 19 7 12 12 5 6 1 6 16 47 48 35 23 27 20 24 22 17 10 9 13 18
49 50 47 46 50 50 54 56 57 49 45 43 37 28 21 14 13 3 4 6 33 12 5 10 5 10 9 11 16 26 17 14 19 9 11 7 5 4 2 7 22 39 33 34 25 17 19 23 16 13 12 12 14 15
48 44 43 45 48 48 52 56 56 48 42 36 30 22 11 10 6 9 8 25 23 3 9 6 2 9 31 20 20 31 32 22 6 4 9 1 10 3 7 24 40 33 25 27 17 10 15 22 13 11 6 9 15 17
42 40 40 43 48 50 51 57 54 47 40 28 24 14 4 6 4 13 28 19 10 5 9 7 6 5 14 16 22 21 20 6 24 5 5 5 1 5 22 41 31 22 22 18 8 7 13 13 15 9 9 15 15 20
39 40 39 44 47 48 52 55 49 46 38 17 15 7 2 6 26 14 5 5 5 4 7 5 9 6 16 11 13 11 14 6 8 4 23 2 5 29 32 36 33 26 22 14 13 15 8 11 7 5 5 11 12 17
39 40 38 40 44 48 49 44 47 49 38 25 12 8 19 16 6 5 5 7 6 3 6 11 17 5 11 5 4 5 2 3 4 7 1 8 5 20 35 33 25 19 19 10 3 1 2 7 6 2 4 6 12 16
42 36 33 37 42 42 40 41 45 45 39 34 23 23 10 4 7 6 5 8 2 2 4 9 10 11 6 3 6 5 3 1 8 10 3 4 7 32 27 23 19 12 5 5 2 7 1 4 10 12 8 7 8 17
36 31 31 38 39 35 39 40 39 41 36 14 6 6 8 7 4 5 5 4 1 2 6 4 3 2 2 5 5 5 9 10 7 3 3 7 30 18 8 10 12 9 6 7 6 7 9 13 11 12 13 11 12 8
30 29 33 35 29 37 41 37 36 35 16 6 8 8 6 6 6 4 3 6 5 9 3 4 2 5 6 6 8 7 9 4 5 7 3 6 18 11 7 12 24 7 8 11 9 7 13 15 14 11 13 16 14 5
28 30 30 27 32 39 39 36 31 25 5 9 10 5 6 10 4 12 14 14 17 6 12 3 1 8 6 7 4 3 5 5 5 5 5 27 26 25 26 9 14 14 15 18 17 15 11 7 14 13 20 21 14 4
32 32 25 34 39 40 41 32 8 2 7 8 10 10 12 3 20 19 3 4 9 1 6 5 5 4 8 6 4 9 4 7 1 6 12 25 25 24 18 10 9 11 15 17 19 20 14 21 25 31 26 22 14 11
30 19 33 42 44 42 31 12 3 8 8 9 8 15 14 12 10 15 8 10 13 4 1 7 5 3 3 5 8 6 5 2 41 17 23 28 24 22 18 17 16 16 15 17 19 21 23 29 27 20 15 21 16 14
27 23 35 38 45 38 7 6 6 9 11 16 21 14 14 10 12 7 9 11 9 4 4 3 4 5 6 8 6 4 8 11 50 11 14 11 14 20 17 22 17 16 21 15 16 17 20 11 9 7 0 7 12 5
26 26 26 27 33 26 5 6 7 8 11 25 13 17 17 18 17 14 22 10 15 9 5 4 6 3 6 14 18 3 9 9 24 20 17 13 10 8 13 8 17 14 16 13 15 19 5 8 8 15 17 18 8 5
24 24 18 26 22 7 8 9 6 9 11 18 24 19 11 16 13 10 11 7 7 5 9 5 5 5 2 21 23 27 11 11 13 17 15 20 20 19 19 17 17 15 19 8 9 9 10 15 8 4 9 9 7 8
19 19 29 13 10 7 8 12 9 9 14 18 19 19 6 14 16 12 10 7 10 7 2 8 22 15 12 4 8 6 11 14 16 16 22 24 21 21 17 12 8 7 7 6 13 14 19 17 9 5 9 10 9 10
13 24 18 6 6 5 11 12 14 25 14 24 22 10 8 9 11 12 14 13 12 9 6 16 21 19 14 9 6 9 12 15 19 23 20 17 23 18 7 3 4 7 12 15 12 18 18 12 7 18 18 19 16 12
15 20 8 5 5 6 14 9 7 6 6 10 11 7 3 6 7 10 7 4 8 3 8 5 1 7 8 10 14 17 13 15 20 20 16 16 7 7 7 1 12 13 24 28 34 21 5 6 12 15 9 10 10 12
20 5 6 5 8 9 9 7 7 7 8 6 5 5 4 6 9 4 6 7 7 15 9 6 8 8 13 19 16 16 12 8 11 13 24 20 14 16 22 22 21 29 29 31 35 29 10 14 13 2 8 8 1 4
6 6 7 9 10 8 7 5 6 5 4 4 4 3 5 8 2 4 3 8 11 9 12 14 20 20 20 19 23 20 12 12 18 52 49 44 33 29 25 21 12 11 20 25 26 19 9 13 8 10 12 4 13 12
5 8 12 8 6 7 5 4 4 5 6 5 2 6 9 5 4 2 5 9 9 10 5 9 9 19 26 28 21 17 17 35 43 35 16 8 9 12 16 22 15 30 11 12 16 16 21 21 9 13 3 8 15 10
6 11 19 17 12 4 7 7 12 10 5 4 5 6 3 5 2 7 11 15 6 8 5 4 1 26 29 29 19 19 26 36 22 23 24 14 13 15 9 19 15 4 6 13 21 35 5 9 9 15 14 13 13 11
12 10 9 13 12 14 7 4 4 5 5 4 3 4 6 6 3 4 4 1 5 8 7 5 5 28 26 20 31 31 23 13 3 14 18 15 10 11 8 5 16 23 20 13 19 22 11 15 19 14 11 10 9 7
14 15 15 27 17 5 5 7 9 2 11 6 6 3 5 6 3 8 1 6 7 11 5 7 10 8 15 6 5 13 15 12 15 13 6 9 13 18 19 10 8 3 4 15 21 31 17 5 5 5 7 7 7 17
20 27 21 4 6 8 12 17 18 19 15 17 20 29 18 21 21 17 17 19 21 20 14 13 14 14 5 1 3 7 10 3 9 6 5 10 20 11 16 17 7 11 17 10 5 15 16 11 3 2 5 8 14 8
13 19 20 14 6 14 29 28 23 17 18 22 21 23 19 16 13 15 11 15 18 18 20 18 14 14 12 8 6 5 7 12 9 3 2 12 13 8 12 12 10 7 7 8 10 9 8 9 15 7 8 12 8 11
17 10 5 5 15 23 21 15 14 15 15 14 11 11 12 7 4 5 4 13 11 9 12 10 7 13 8 9 1 5 9 20 19 13 12 3 5 7 12 22 16 17 16 9 17 8 13 7 9 13 13 15 15 14
16 12 17 20 4 7 7 5 5 2 6 8 8 9 5 2 9 4 2 5 10 12 12 7 13 16 15 15 12 7 8 11 11 13 17 19 18 12 13 11 8 12 12 10 18 14 14 8 13 12 12 14 18 20
Wind_Direction_500mb
337 338 342 345 347 350 352 353 352 352 353 354 353 354 356 355 354 3 68 22 343 296 289 317 348 338 342 17 4 330 350 354 294 291 234 260 250 264 231 87 129 142 155 135 309 44 126 348 23 78 125 72 61 47
333 333 337 340 342 346 349 351 350 348 348 349 349 349 351 351 350 346 333 296 300 275 254 299 295 303 273 290 323 329 321 334 13 14 9 330 337 345 149 71 21 47 127 131 98 157 116 77 98 86 87 76 57 40
325 330 334 337 339 341 344 345 347 348 348 349 349 347 347 348 347 344 350 14 9 312 313 276 10 344 280 272 255 285 321 346 359 28 343 285 353 25 29 15 101 76 57 113 96 144 98 90 84 77 67 63 38 33
325 329 333 335 337 339 342 342 343 346 345 345 347 346 346 349 353 2 23 53 22 321 286 22 49 336 316 301 249 289 305 300 304 327 320 278 335 355 327 215 95 209 113 99 96 92 89 81 84 89 74 44 23 8
322 326 329 332 334 337 340 340 340 340 340 339 342 343 343 352 10 39 60 63 18 17 313 293 345 23 344 210 348 304 296 291 308 272 254 272 259 21 338 52 33 33 305 117 135 95 108 114 119 100 87 44 11 11
321 326 327 330 331 333 337 337 337 336 337 335 337 337 337 341 348 357 13 42 310 317 293 302 331 2 356 351 344 303 281 287 294 315 288 232 123 106 98 108 98 86 94 104 115 111 116 132 116 99 75 25 38 26
322 325 327 330 330 330 334 338 337 336 335 334 334 332 332 333 338 3 267 296 343 334 258 287 340 58 349 327 290 303 269 269 280 308 282 109 96 36 28 92 103 93 92 102 103 115 107 125 116 94 65 46 23 5
321 322 326 329 331 330 332 336 338 337 336 332 332 327 324 334 350 1 326 316 329 274 263 280 233 73 15 17 351 354 354 327 252 250 296 98 127 167 92 115 114 114 113 106 93 98 86 115 98 72 42 39 12 9
320 322 325 330 332 331 332 335 336 339 337 334 326 322 300 346 329 298 310 321 326 232 313 325 2 35 12 38 12 10 27 2 323 308 338 38 78 35 139 127 127 124 114 103 103 178 129 113 110 89 72 24 19 10
322 324 323 327 330 332 335 335 338 344 345 338 348 358 199 312 319 325 349 352 338 233 272 326 41 10 2 32 28 36 16 24 330 300 307 126 97 122 131 136 133 130 129 133 115 107 100 135 104 74 73 35 6 2
320 323 323 328 331 331 334 339 342 348 356 9 344 299 302 311 327 273 255 225 217 71 338 3 27 326 32 64 105 74 65 356 295 268 70 353 21 131 126 126 136 132 120 113 78 70 210 182 178 226 315 318 351 348
319 319 323 331 333 334 336 340 342 345 347 323 304 299 330 319 256 248 243 154 54 96 75 6 17 7 48 78 122 159 111 163 252 281 169 155 221 158 145 133 123 116 129 113 18 310 226 267 257 253 252 294 319 355
317 315 318 328 331 333 336 337 336 335 334 331 328 306 242 240 25 229 337 60 10 216 126 177 201 344 204 222 92 178 204 219 223 274 339 30 54 56 94 143 151 200 204 211 256 275 326 289 240 262 247 257 275 1
317 317 319 326 328 335 330 330 331 334 330 287 231 305 211 199 268 25 86 74 87 62 93 76 293 268 217 193 193 219 220 162 236 185 103 197 150 169 265 189 294 243 353 312 297 279 308 284 256 234 248 267 266 338
321 324 320 325 324 333 334 331 322 316 268 274 276 253 243 108 49 329 22 84 70 64 350 199 121 225 239 243 242 309 293 253 68 126 202 207 182 172 190 274 322 325 322 331 331 330 324 243 247 262 275 243 252 240
320 321 319 325 332 335 331 332 353 71 269 245 249 280 273 226 166 228 80 71 22 351 323 272 278 248 231 298 261 229 295 30 279 167 181 177 194 205 226 241 271 301 307 299 296 295 293 280 283 290 278 230 237 241
322 319 320 322 331 337 320 315 305 237 254 256 259 272 56 65 354 14 356 308 291 286 351 279 263 335 231 206 203 10 42 341 319 207 173 182 197 211 238 258 262 276 299 293 294 300 288 283 295 290 263 207 201 238
314 296 316 324 330 342 358 318 281 274 248 261 271 276 287 291 303 290 306 265 282 286 357 215 252 276 280 333 25 60 79 29 307 32 157 179 237 247 243 267 275 313 303 289 291 290 284 271 294 297 136 172 210 228
314 319 324 328 336 338 315 248 252 277 269 279 327 340 348 341 345 341 312 297 232 229 215 233 237 10 13 19 354 18 181 222 299 334 347 345 341 289 271 319 304 309 296 300 319 315 241 203 196 133 107 59 145 51
312 316 324 331 332 315 280 271 241 269 292 324 318 321 330 329 327 313 288 299 272 203 269 353 24 17 52 334 259 319 338 351 339 342 355 350 342 311 305 271 268 297 294 307 282 153 155 146 137 120 146 128 102 353
331 324 333 332 331 299 269 301 245 255 298 293 4 355 318 309 318 309 301 290 202 188 96 353 352 337 327 300 331 323 340 342 350 340 331 331 341 325 318 304 277 225 265 166 151 168 176 179 181 159 204 228 166 40
317 322 330 292 281 276 271 257 290 308 294 293 308 288 259 266 271 283 290 278 48 334 304 299 272 333 331 342 312 306 318 323 327 327 325 319 316 320 327 122 171 185 169 124 138 167 165 136 4 340 247 220 229 261
334 336 311 268 272 254 269 294 262 261 279 296 296 278 331 298 284 302 352 319 135 260 311 273 315 297 323 339 2 358 346 334 342 352 356 334 12 88 113 173 164 166 152 124 128 113 147 29 12 13 65 45 262 252
317 281 272 268 233 264 282 251 247 272 269 249 290 296 298 283 279 295 268 82 38 38 9 68 49 39 15 357 346 333 323 350 14 30 61 61 89 110 118 110 120 122 128 121 128 135 198 303 343 135 114 165 351 8
272 246 232 256 249 244 251 250 228 245 273 290 273 252 286 301 299 262 315 64 13 112 206 75 67 39 27 358 359 355 15 138 136 117 107 102 93 101 110 125 130 153 169 195 222 260 313 342 307 68 151 37 58 40
250 227 206 238 217 230 245 279 332 337 301 298 344 354 328 302 252 315 57 94 104 109 147 108 84 47 22 14 18 36 95 139 137 120 106 91 76 48 15 354 347 12 353 345 332 298 266 251 249 320 245 79 73 50
253 249 217 231 249 279 272 275 273 269 276 273 337 327 289 268 331 70 89 82 112 49 60 152 78 37 42 27 46 86 129 149 126 79 98 48 13 352 16 42 2 53 62 61 50 48 79 246 131 107 81 65 38 36
247 276 266 240 221 213 247 273 267 247 235 240 260 286 296 332 59 103 110 58 92 16 31 70 148 58 61 62 67 87 99 107 193 312 314 322 15 46 7 79 51 51 38 12 12 7 46 73 68 51 42 23 17 333
239 239 260 267 244 197 255 236 244 354 282 237 268 281 264 249 221 238 44 199 255 254 298 348 206 113 52 48 92 82 56 57 86 21 39 47 31 31 23 206 4 118 45 24 28 37 55 33 206 97 51 358 317 352
249 236 247 162 228 213 233 227 260 257 268 273 277 274 295 298 259 258 253 237 235 224 249 274 274 209 268 289 295 225 259 129 131 66 51 34 14 10 16 24 21 33 17 351 39 48 27 357 50 157 58 7 2 327
243 223 205 206 252 307 286 260 243 251 273 274 270 274 277 307 285 291 278 233 220 224 236 237 224 195 79 355 148 196 253 217 174 211 199 330 340 317 338 349 12 62 49 355 339 312 349 349 1 355 350 341 335 340
248 209 196 236 249 260 268 266 278 263 265 263 261 256 263 265 267 315 279 176 187 214 221 224 215 200 242 308 289 60 91 164 184 207 191 242 173 95 49 35 50 31 8 342 336 16 345 337 342 340 322 322 336 327
214 233 253 251 256 315 297 299 272 74 354 293 280 214 187 54 54 87 128 156 181 189 191 146 85 141 119 116 155 208 272 252 254 267 269 267 259 260 311 300 315 359 331 354 351 341 339 338 342 325 326 323 319 313
Wind_Speed_850mb
69 66 65 62 62 65 66 63 56 53 53 51 50 50 50 45 38 27 12 17 23 12 39 16 18 28 36 34 8 28 17 10 7 3 4 8 5 10 6 5 11 9 9 3 3 3 6 30 15 10 11 36 33 30
65 62 63 60 57 61 63 61 58 55 53 51 49 48 50 45 37 30 18 15 18 17 27 28 25 19 19 13 21 25 19 23 13 7 9 9 7 7 6 2 11 8 8 9 7 8 18 39 34 35 35 34 25 17
58 59 61 58 55 58 61 59 58 54 51 50 48 47 45 43 37 29 17 22 37 15 37 19 13 2 10 14 11 15 13 25 13 21 8 6 5 6 6 7 5 8 8 10 13 9 22 43 38 32 24 19 13 18
57 54 56 55 52 56 59 56 55 53 49 49 49 44 40 37 32 23 15 20 26 16 10 9 14 9 12 9 6 10 17 13 16 18 10 4 4 11 3 5 7 3 11 12 18 23 37 28 22 19 18 15 18 21
53 54 54 52 50 53 57 56 55 51 50 48 46 41 34 27 20 17 19 22 16 14 10 24 21 5 11 5 8 10 14 20 27 7 4 6 7 5 7 7 10 10 3 7 6 21 31 18 24 14 13 15 16 17
51 54 52 48 49 51 55 55 56 50 48 47 43 34 28 16 15 11 6 5 14 29 8 7 11 5 15 14 14 16 12 16 19 7 12 12 5 6 1 6 16 47 48 35 23 27 20 24 22 17 10 9 13 18
49 50 47 46 50 50 54 56 57 49 45 43 37 28 21 14 13 3 4 6 33 12 5 10 5 10 9 11 16 26 17 14 19 9 11 7 5 4 2 7 22 39 33 34 25 17 19 23 16 13 12 12 14 15
48 44 43 45 48 48 52 56 56 48 42 36 30 22 11 10 6 9 8 25 23 3 9 6 2 9 31 20 20 31 32 22 6 4 9 1 10 3 7 24 40 33 25 27 17 10 15 22 13 11 6 9 15 17
42 40 40 43 48 50 51 57 54 47 40 28 24 14 4 6 4 13 28 19 10 5 9 7 6 5 14 16 22 21 20 6 24 5 5 5 1 5 22 41 31 22 22 18 8 7 13 13 15 9 9 15 15 20
39 40 39 44 47 48 52 55 49 46 38 17 15 7 2 6 26 14 5 5 5 4 7 5 9 6 16 11 13 11 14 6 8 4 23 2 5 29 32 36 33 26 22 14 13 15 8 11 7 5 5 11 12 17
39 40 38 40 44 48 49 44 47 49 38 25 12 8 19 16 6 5 5 7 6 3 6 11 17 5 11 5 4 5 2 3 4 7 1 8 5 20 35 33 25 19 19 10 3 1 2 7 6 2 4 6 12 16
42 36 33 37 42 42 40 41 45 45 39 34 23 23 10 4 7 6 5 8 2 2 4 9 10 11 6 3 6 5 3 1 8 10 3 4 7 32 27 23 19 12 5 5 2 7 1 4 10 12 8 7 8 17
36 31 31 38 39 35 39 40 39 41 36 14 6 6 8 7 4 5 5 4 1 2 6 4 3 2 2 5 5 5 9 10 7 3 3 7 30 18 8 10 12 9 6 7 6 7 9 13 11 12 13 11 12 8
30 29 33 35 29 37 41 37 36 35 16 6 8 8 6 6 6 4 3 6 5 9 3 4 2 5 6 6 8 7 9 4 5 7 3 6 18 11 7 12 24 7 8 11 9 7 13 15 14 11 13 16 14 5
28 30 30 27 32 39 39 36 31 25 5 9 10 5 6 10 4 12 14 14 17 6 12 3 1 8 6 7 4 3 5 5 5 5 5 27 26 25 26 9 14 14 15 18 17 15 11 7 14 13 20 21 14 4
32 32 25 34 39 40 41 32 8 2 7 8 10 10 12 3 20 19 3 4 9 1 6 5 5 4 8 6 4 9 4 7 1 6 12 25 25 24 18 10 9 11 15 17 19 20 14 21 25 31 26 22 14 11
30 19 33 42 44 42 31 12 3 8 8 9 8 15 14 12 10 15 8 10 13 4 1 7 5 3 3 5 8 6 5 2 41 17 23 28 24 22 18 17 16 16 15 17 19 21 23 29 27 20 15 21 16 14
27 23 35 38 45 38 7 6 6 9 11 16 21 14 14 10 12 7 9 11 9 4 4 3 4 5 6 8 6 4 8 11 50 11 14 11 14 20 17 22 17 16 21 15 16 17 20 11 9 7 0 7 12 5
26 26 26 27 33 26 5 6 7 8 11 25 13 17 17 18 17 14 22 10 15 9 5 4 6 3 6 14 18 3 9 9 24 20 17 13 10 8 13 8 17 14 16 13 15 19 5 8 8 15 17 18 8 5
24 24 18 26 22 7 8 9 6 9 11 18 24 19 11 16 13 10 11 7 7 5 9 5 5 5 2 21 23 27 11 11 13 17 15 20 20 19 19 17 17 15 19 8 9 9 10 15 8 4 9 9 7 8
19 19 29 13 10 7 8 12 9 9 14 18 19 19 6 14 16 12 10 7 10 7 2 8 22 15 12 4 8 6 11 14 16 16 22 24 21 21 17 12 8 7 7 6 13 14 19 17 9 5 9 10 9 10
13 24 18 6 6 5 11 12 14 25 14 24 22 10 8 9 11 12 14 13 12 9 6 16 21 19 14 9 6 9 12 15 19 23 20 17 23 18 7 3 4 7 12 15 12 18 18 12 7 18 18 19 16 12
15 20 8 5 5 6 14 9 7 6 6 10 11 7 3 6 7 10 7 4 8 3 8 5 1 7 8 10 14 17 13 15 20 20 16 16 7 7 7 1 12 13 24 28 34 21 5 6 12 15 9 10 10 12
20 5 6 5 8 9 9 7 7 7 8 6 5 5 4 6 9 4 6 7 7 15 9 6 8 8 13 19 16 16 12 8 11 13 24 20 14 16 22 22 21 29 29 31 35 29 10 14 13 2 8 8 1 4
6 6 7 9 10 8 7 5 6 5 4 4 4 3 5 8 2 4 3 8 11 9 12 14 20 20 20 19 23 20 12 12 18 52 49 44 33 29 25 21 12 11 20 25 26 19 9 13 8 10 12 4 13 12
5 8 12 8 6 7 5 4 4 5 6 5 2 6 9 5 4 2 5 9 9 10 5 9 9 19 26 28 21 17 17 35 43 35 16 8 9 12 16 22 15 30 11 12 16 16 21 21 9 13 3 8 15 10
6 11 19 17 12 4 7 7 12 10 5 4 5 6 3 5 2 7 11 15 6 8 5 4 1 26 29 29 19 19 26 36 22 23 24 14 13 15 9 19 15 4 6 13 21 35 5 9 9 15 14 13 13 11
12 10 9 13 12 14 7 4 4 5 5 4 3 4 6 6 3 4 4 1 5 8 7 5 5 28 26 20 31 31 23 13 3 14 18 15 10 11 8 5 16 23 20 13 19 22 11 15 19 14 11 10 9 7
14 15 15 27 17 5 5 7 9 2 11 6 6 3 5 6 3 8 1 6 7 11 5 7 10 8 15 6 5 13 15 12 15 13 6 9 13 18 19 10 8 3 4 15 21 31 17 5 5 5 7 7 7 17
20 27 21 4 6 8 12 17 18 19 15 17 20 29 18 21 21 17 17 19 21 20 14 13 14 14 5 1 3 7 10 3 9 6 5 10 20 11 16 17 7 11 17 10 5 15 16 11 3 2 5 8 14 8
13 19 20 14 6 14 29 28 23 17 18 22 21 23 19 16 13 15 11 15 18 18 20 18 14 14 12 8 6 5 7 12 9 3 2 12 13 8 12 12 10 7 7 8 10 9 8 9 15 7 8 12 8 11
17 10 5 5 15 23 21 15 14 15 15 14 11 11 12 7 4 5 4 13 11 9 12 10 7 13 8 9 1 5 9 20 19 13 12 3 5 7 12 22 16 17 16 9 17 8 13 7 9 13 13 15 15 14
16 12 17 20 4 7 7 5 5 2 6 8 8 9 5 2 9 4 2 5 10 12 12 7 13 16 15 15 12 7 8 11 11 13 17 19 18 12 13 11 8 12 12 10 18 14 14 8 13 12 12 14 18 20
Wind_Direction_850mb
337 338 342 345 347 350 352 353 352 352 353 354 353 354 356 355 354 3 68 22 343 296 289 317 348 338 342 17 4 330 350 354 294 291 234 260 250 264 231 87 129 142 155 135 309 44 126 348 23 78 125 72 61 47
333 333 337 340 342 346 349 351 350 348 348 349 349 349 351 351 350 346 333 296 300 275 254 299 295 303 273 290 323 329 321 334 13 14 9 330 337 345 149 71 21 47 127 131 98 157 116 77 98 86 87 76 57 40
325 330 334 337 339 341 344 345 347 348 348 349 349 347 347 348 347 344 350 14 9 312 313 276 10 344 280 272 255 285 321 346 359 28 343 285 353 25 29 15 101 76 57 113 96 144 98 90 84 77 67 63 38 33
325 329 333 335 337 339 342 342 343 346 345 345 347 346 346 349 353 2 23 53 22 321 286 22 49 336 316 301 249 289 305 300 304 327 320 278 335 355 327 215 95 209 113 99 96 92 89 81 84 89 74 44 23 8
322 326 329 332 334 337 340 340 340 340 340 339 342 343 343 352 10 39 60 63 18 17 313 293 345 23 344 210 348 304 296 291 308 272 254 272 259 21 338 52 33 33 305 117 135 95 108 114 119 100 87 44 11 11
321 326 327 330 331 333 337 337 337 336 337 335 337 337 337 341 348 357 13 42 310 317 293 302 331 2 356 351 344 303 281 287 294 315 288 232 123 106 98 108 98 86 94 104 115 111 116 132 116 99 75 25 38 26
322 325 327 330 330 330 334 338 337 336 335 334 334 332 332 333 338 3 267 296 343 334 258 287 340 58 349 327 290 303 269 269 280 308 282 109 96 36 28 92 103 93 92 102 103 115 107 125 116 94 65 46 23 5
321 322 326 329 331 330 332 336 338 337 336 332 332 327 324 334 350 1 326 316 329 274 263 280 233 73 15 17 351 354 354 327 252 250 296 98 127 167 92 115 114 114 113 106 93 98 86 115 98 72 42 39 12 9
320 322 325 330 332 331 332 335 336 339 337 334 326 322 300 346 329 298 310 321 326 232 313 325 2 35 12 38 12 10 27 2 323 308 338 38 78 35 139 127 127 124 114 103 103 178 129 113 110 89 72 24 19 10
322 324 323 327 330 332 335 335 338 344 345 338 348 358 199 312 319 325 349 352 338 233 272 326 41 10 2 32 28 36 16 24 330 300 307 126 97 122 131 136 133 130 129 133 115 107 100 135 104 74 73 35 6 2
320 323 323 328 331 331 334 339 342 348 356 9 344 299 302 311 327 273 255 225 217 71 338 3 27 326 32 64 105 74 65 356 295 268 70 353 21 131 126 126 136 132 120 113 78 70 210 182 178 226 315 318 351 348
319 319 323 331 333 334 336 340 342 345 347 323 304 299 330 319 256 248 243 154 54 96 75 6 17 7 48 78 122 159 111 163 252 281 169 155 221 158 145 133 123 116 129 113 18 310 226 267 257 253 252 294 319 355
317 315 318 328 331 333 336 337 336 335 334 331 328 306 242 240 25 229 337 60 10 216 126 177 201 344 204 222 92 178 204 219 223 274 339 30 54 56 94 143 151 200 204 211 256 275 326 289 240 262 247 257 275 1
317 317 319 326 328 335 330 330 331 334 330 287 231 305 211 199 268 25 86 74 87 62 93 76 293 268 217 193 193 219 220 162 236 185 103 197 150 169 265 189 294 243 353 312 297 279 308 284 256 234 248 267 266 338
321 324 320 325 324 333 334 331 322 316 268 274 276 253 243 108 49 329 22 84 70 64 350 199 121 225 239 243 242 309 293 253 68 126 202 207 182 172 190 274 322 325 322 331 331 330 324 243 247 262 275 243 252 240
320 321 319 325 332 335 331 332 353 71 269 245 249 280 273 226 166 228 80 71 22 351 323 272 278 248 231 298 261 229 295 30 279 167 181 177 194 205 226 241 271 301 307 299 296 295 293 280 283 290 278 230 237 241
322 319 320 322 331 337 320 315 305 237 254 256 259 272 56 65 354 14 356 308 291 286 351 279 263 335 231 206 203 10 42 341 319 207 173 182 197 211 238 258 262 276 299 293 294 300 288 283 295 290 263 207 201 238
314 296 316 324 330 342 358 318 281 274 248 261 271 276 287 291 303 290 306 265 282 286 357 215 252 276 280 333 25 60 79 29 307 32 157 179 237 247 243 267 275 313 303 289 291 290 284 271 294 297 136 172 210 228
314 319 324 328 336 338 315 248 252 277 269 279 327 340 348 341 345 341 312 297 232 229 215 233 237 10 13 19 354 18 181 222 299 334 347 345 341 289 271 319 304 309 296 300 319 315 241 203 196 133 107 59 145 51
312 316 324 331 332 315 280 271 241 269 292 324 318 321 330 329 327 313 288 299 272 203 269 353 24 17 52 334 259 319 338 351 339 342 355 350 342 311 305 271 268 297 294 307 282 153 155 146 137 120 146 128 102 353
331 324 333 332 331 299 269 301 245 255 298 293 4 355 318 309 318 309 301 290 202 188 96 353 352 337 327 300 331 323 340 342 350 340 331 331 341 325 318 304 277 225 265 166 151 168 176 179 181 159 204 228 166 40
317 322 330 292 281 276 271 257 290 308 294 293 308 288 259 266 271 283 290 278 48 334 304 299 272 333 331 342 312 306 318 323 327 327 325 319 316 320 327 122 171 185 169 124 138 167 165 136 4 340 247 220 229 261
334 336 311 268 272 254 269 294 262 261 279 296 296 278 331 298 284 302 352 319 135 260 311 273 315 297 323 339 2 358 346 334 342 352 356 334 12 88 113 173 164 166 152 124 128 113 147 29 12 13 65 45 262 252
317 281 272 268 233 264 282 251 247 272 269 249 290 296 298 283 279 295 268 82 38 38 9 68 49 39 15 357 346 333 323 350 14 30 61 61 89 110 118 110 120 122 128 121 128 135 198 303 343 135 114 165 351 8
272 246 232 256 249 244 251 250 228 245 273 290 273 252 286 301 299 262 315 64 13 112 206 75 67 39 27 358 359 355 15 138 136 117 107 102 93 101 110 125 130 153 169 195 222 260 313 342 307 68 151 37 58 40
250 227 206 238 217 230 245 279 332 337 301 298 344 354 328 302 252 315 57 94 104 109 147 108 84 47 22 14 18 36 95 139 137 120 106 91 76 48 15 354 347 12 353 345 332 298 266 251 249 320 245 79 73 50
253 249 217 231 249 279 272 275 273 269 276 273 337 327 289 268 331 70 89 82 112 49 60 152 78 37 42 27 46 86 129 149 126 79 98 48 13 352 16 42 2 53 62 61 50 48 79 246 131 107 81 65 38 36
247 276 266 240 221 213 247 273 267 247 235 240 260 286 296 332 59 103 110 58 92 16 31 70 148 58 61 62 67 87 99 107 193 312 314 322 15 46 7 79 51 51 38 12 12 7 46 73 68 51 42 23 17 333
239 239 260 267 244 197 255 236 244 354 282 237 268 281 264 249 221 238 44 199 255 254 298 348 206 113 52 48 92 82 56 57 86 21 39 47 31 31 23 206 4 118 45 24 28 37 55 33 206 97 51 358 317 352
249 236 247 162 228 213 233 227 260 257 268 273 277 274 295 298 259 258 253 237 235 224 249 274 274 209 268 289 295 225 259 129 131 66 51 34 14 10 16 24 21 33 17 351 39 48 27 357 50 157 58 7 2 327
243 223 205 206 252 307 286 260 243 251 273 274 270 274 277 307 285 291 278 233 220 224 236 237 224 195 79 355 148 196 253 217 174 211 199 330 340 317 338 349 12 62 49 355 339 312 349 349 1 355 350 341 335 340
248 209 196 236 249 260 268 266 278 263 265 263 261 256 263 265 267 315 279 176 187 214 221 224 215 200 242 308 289 60 91 164 184 207 191 242 173 95 49 35 50 31 8 342 336 16 345 337 342 340 322 322 336 327
214 233 253 251 256 315 297 299 272 74 354 293 280 214 187 54 54 87 128 156 181 189 191 146 85 141 119 116 155 208 272 252 254 267 269 267 259 260 311 300 315 359 331 354 351 341 339 338 342 325 326 323 319 313